SCP
0 -0 -0 -0 -0 -0 -0 -0 -0 0 0 0 0 0 0 0 0 0 0 0 0 -0 -0 0 0 0 0 0 0 0 0 0 0 0 0 0 0 0 0 0 0 0 0 0 0
0 0 0 0 0 0 -0 -0 -0 -0 -0 -0 0 0 0 0 0 0 0 0 -0 -0 0 0 0 0 0 0 0 0 0 0 0 0 0 0 0 0 0 0 0 0 0 0 0
0 0 0 0 0 0 0 0 0 -0 0 0 0 0 0 0 0 0 0 0 -0 -0 0 0 0 0 0 0 0 0 0 0 0 0 0 0 0 0 0 0 0 0 0 0 0
0 0 0 0 0 0 0 0 -0 0 0 0 0 0 0 0 0 0 0 0 0 0 0 0 0 0 0 0 0 0 0 0 0 0 0 0 0 0 0 0 0 0 0 0 0
0 0 0 0 0 0 0 0 0 0 0 0 0 0 0 0 0 0 0 0 0 0 0 0 0 0 0 0 0 0 0 0 0 0 0 0 0 0 0 0 0 0 0 0 0
0 0 0 0 0 0 0 0 0 0 0 0 0 0 0 0 0 0 0 0 0 0 0 0 0 0 0 0 0 0 0 0 0 0 0 0 0 0 0 0 0 0 0 0 0
0 0 0 0 0 0 0 0 0 0 0 0 0 0 0 0 0 0 0 0 0 0 0 0 0 0 0 0 0 0 0 0 0 0 0 0 0 0 0 0 0 0 0 0 0
0 0 0 0 0 0 0 0 0 0 0 0 0 0 0 0 0 0 0 0 0 0 0 0 0 0 0 0 0 0 0 0 0 0 0 0 0 0 0 0 0 0 0 0 0
0 0 0 0 0 0 0 0 -0 0 0 0 0 0 0 0 0 0 0 0 0 0 0 0 0 0 0 0 0 0 0 0 0 0 0 0 0 0 0 0 0 0 0 0 0
0 0 0 0 0 0 0 -0 0 0 0 0 0 0 0 0 0 0 0 0 0 0 0 0 0 0 0 0 0 0 0 0 0 0 0 0 -0 0 0 0 0 0 0 0 0
0 0 0 0 0 0 0 -0 -0 0 0 0 0 0 0 0 0 0 0 0 0 0 0 0 0 0 0 0 0 0 0 0 0 0 0 0 -0 0 0 0 0 0 0 0 0
0 0 0 0 0 0 -0 -0 -0 0 0 0 0 0 0 0 0 0 0 0 0 0 0 0 0 0 0 0 0 0 0 0 0 0 -0 -0 -0 -0 0 0 0 0 0 0 0
0 0 0 0 0 0 -0 -0 -0 0 0 0 0 0 0 0 0 0 0 0 0 0 0 0 0 0 0 0 0 0 0 0 0 0 0 -0 -0 -0 0 0 0 0 0 0 0
0 0 0 0 0 0 0 0 0 0 0 0 0 0 0 0 0 0 0 0 0 0 0 0 0 0 0 0 0 0 0 0 0 0 0 0 -0 -0 0 0 0 0 0 0 0
0 0 0 0 0 0 0 0 0 0 0 0 0 0 0 0 0 0 0 0 0 0 0 0 0 0 0 0 0 0 0 0 0 0 0 0 0 -0 0 0 0 0 0 0 0
0 0 0 0 0 0 0 0 0 0 0 0 0 0 0 0 0 0 0 0 0 0 0 0 0 0 0 0 0 0 0 0 0 0 0 0 0 0 0 0 0 0 0 0 0
0 0 0 0 0 0 0 0 0 0 0 0 0 0 0 0 0 0 0 0 0 0 0 0 0 0 0 0 0 0 0 0 0 0 0 0 0 0 0 0 0 0 0 0 0
0 0 0 0 0 0 0 0 0 0 0 0 0 0 0 0 0 0 0 0 0 0 0 0 0 0 0 0 0 0 0 0 0 0 0 0 0 0 0 0 0 0 0 0 0
0 0 0 0 0 0 0 0 0 0 0 0 0 0 0 0 0 0 0 0 0 0 0 0 0 0 0 0 0 0 0 0 0 0 0 0 0 0 0 0 0 0 0 0 0
0 0 0 0 0 0 0 0 0 0 0 0 0 0 0 0 0 0 0 0 0 0 0 0 0 0 0 0 0 0 0 0 0 0 0 0 0 0 0 0 0 0 0 0 0
0 0 0 0 0 0 0 0 0 0 0 0 0 0 0 0 0 0 0 0 0 0 0 0 0 0 0 0 0 0 0 0 0 0 0 0 0 0 0 0 0 0 0 0 0
0 0 0 0 0 0 0 0 0 0 0 0 0 0 0 0 0 0 0 0 0 0 0 0 0 0 0 0 0 0 0 0 0 0 0 0 0 0 0 0 0 0 0 0 0
0 0 0 0 0 0 0 0 0 0 0 0 0 0 0 0 0 0 0 0 0 0 0 0 0 0 0 0 0 0 0 0 0 0 0 0 0 0 0 0 0 0 0 0 0
0 0 0 0 0 0 0 0 0 0 0 0 0 0 0 0 0 0 0 0 0 0 0 0 0 0 0 0 0 0 0 0 0 0 0 0 0 0 0 0 0 0 0 0 0
0 0 0 0 0 0 0 0 0 0 0 0 0 0 0 0 0 0 0 0 0 0 0 0 0 0 0 0 0 0 0 0 0 0 0 0 0 0 0 0 0 0 0 0 0
0 0 0 0 0 0 0 0 0 0 0 0 0 0 0 0 0 0 0 0 0 0 0 0 0 0 0 0 0 0 0 0 0 0 0 0 0 0 0 0 0 0 0 0 0
0 0 0 0 0 0 0 0 0 0 0 0 0 0 0 0 0 0 0 0 0 0 0 0 0 0 0 0 0 0 0 0 0 0 0 0 0 0 0 0 0 0 0 0 0
Wind_Speed_500mb
31 32 35 38 39 40 43 45 46 44 42 43 42 38 34 29 22 13 11 15 17 14 12 9 2 1 1 2 3 5 6 2 6 9 6 2 2 6 9 14 9 8 13 21 36
28 32 34 36 41 45 47 47 49 49 45 42 40 37 32 24 14 10 11 14 16 16 12 6 4 3 1 3 4 7 5 10 6 7 4 2 3 10 8 9 4 9 13 34 34
33 37 40 43 44 46 48 47 47 49 48 44 39 32 29 21 5 7 10 15 19 17 13 9 5 1 3 1 1 5 7 5 4 6 7 4 3 3 9 5 14 18 32 43 33
29 30 33 37 41 46 49 51 51 48 49 43 37 31 23 11 2 8 16 15 14 14 11 8 2 3 4 1 3 0 7 7 3 3 2 4 6 3 10 4 10 21 37 39 32
26 30 36 40 44 48 50 48 49 51 46 36 31 26 16 7 4 14 16 16 12 9 7 4 2 5 6 2 3 4 2 4 3 3 3 4 3 5 12 12 14 36 35 31 26
30 32 34 37 42 46 48 47 46 50 40 33 29 27 12 2 6 14 17 14 10 7 2 1 2 5 6 4 4 4 5 6 4 3 2 3 3 1 5 14 34 36 30 27 20
29 31 34 39 45 48 48 45 49 45 35 26 34 23 5 4 2 13 17 11 12 8 4 3 1 3 4 5 1 1 7 8 6 4 1 2 7 10 8 25 38 34 27 24 21
32 33 35 38 42 45 47 48 48 36 33 25 26 17 4 2 5 14 15 11 13 7 5 6 5 2 2 6 8 5 7 6 3 6 1 3 11 2 17 34 33 29 25 25 29
31 34 37 41 45 48 47 51 38 38 20 35 16 14 5 8 13 25 17 10 6 7 5 6 6 5 3 7 8 11 4 4 11 6 2 3 8 5 14 34 35 33 25 29 33
32 36 39 42 47 52 50 48 44 21 19 22 5 8 2 12 17 12 12 9 2 5 6 4 6 6 6 6 7 5 4 6 8 1 0 4 14 9 9 29 40 33 27 34 36
33 36 40 44 47 52 53 47 43 9 50 15 23 11 11 16 5 16 14 4 3 5 5 6 8 6 8 9 5 5 4 5 5 1 2 9 12 16 9 19 27 32 29 37 36
35 37 39 44 48 44 48 31 22 16 24 21 11 11 10 13 5 19 12 3 5 4 1 9 4 3 4 5 5 5 3 8 7 1 4 7 19 15 14 17 41 43 38 42 41
38 40 40 41 46 40 46 36 31 28 9 8 4 6 4 9 4 13 13 5 7 4 2 7 3 6 4 3 5 5 7 5 10 2 6 8 13 8 7 17 26 40 45 46 50
40 41 41 38 27 44 31 34 33 30 8 10 0 2 4 6 3 8 8 4 4 4 5 6 4 2 3 3 9 5 2 3 3 4 6 4 8 9 6 11 11 37 46 54 56
43 43 43 39 33 28 27 26 26 17 13 5 3 3 2 2 7 2 5 3 5 4 5 7 4 1 6 5 5 7 5 6 4 5 5 5 3 11 3 10 16 26 39 53 60
48 46 44 40 33 24 19 16 19 8 13 5 1 1 4 2 3 5 2 3 6 3 4 7 5 4 5 5 5 13 8 11 7 5 4 9 8 7 9 10 9 3 22 39 56
52 51 49 40 22 16 7 6 7 7 4 5 4 2 2 6 5 5 2 2 6 4 3 5 4 7 4 4 5 5 9 4 7 5 9 7 3 13 10 7 7 12 21 37 55
59 58 55 44 33 13 11 8 8 7 12 3 3 3 9 11 8 5 2 5 6 7 4 5 10 9 3 5 8 6 8 9 11 5 6 2 11 9 5 15 18 11 31 44 52
60 59 54 50 36 17 17 4 12 12 5 9 1 6 7 6 7 6 11 9 13 17 13 8 8 1 2 1 2 7 6 9 12 4 3 6 12 15 7 7 5 24 45 49 45
60 55 53 45 29 28 7 13 11 12 8 4 13 15 13 8 9 9 10 7 6 13 4 8 2 1 2 3 4 4 8 6 2 6 7 7 9 9 10 10 4 13 38 43 40
57 11 15 24 31 21 7 14 13 29 19 13 12 10 13 12 13 10 8 4 7 9 9 8 6 4 2 10 13 4 3 6 6 7 8 3 8 8 8 11 11 18 40 40 35
47 5 33 51 9 9 7 11 8 9 14 4 3 14 14 13 12 9 14 9 13 19 14 10 8 7 15 2 3 5 11 9 7 8 3 5 11 1 12 13 16 30 38 30 28
19 13 50 59 8 8 5 4 7 3 4 7 7 7 3 5 6 8 6 3 5 10 13 11 5 1 10 5 4 5 6 6 7 5 11 8 8 2 11 4 19 37 31 30 27
22 7 13 27 12 6 8 9 8 8 9 9 5 5 4 4 2 7 5 2 2 2 7 11 6 9 11 6 6 6 8 10 9 5 5 18 11 18 21 9 7 22 32 30 26
23 10 18 11 14 18 15 8 10 11 14 17 7 15 13 11 8 10 6 3 3 4 3 6 8 7 7 8 3 6 10 13 13 10 12 6 12 11 12 12 21 28 31 29 23
25 15 18 10 15 31 22 16 21 9 13 10 9 13 11 9 12 8 10 8 7 2 5 2 5 8 6 10 13 12 21 19 26 21 18 23 28 16 40 31 20 36 39 35 27
38 25 18 16 11 13 10 12 20 19 18 8 14 10 14 15 8 6 4 5 8 8 7 5 5 5 5 0 5 11 30 32 22 8 7 14 7 12 10 15 30 43 49 44 32
Wind_Direction_500mb
16 11 9 8 9 7 1 357 353 349 347 346 344 339 338 339 342 347 11 10 0 348 336 344 297 224 181 140 133 124 66 225 246 170 277 213 208 144 132 132 146 160 161 167 169
13 6 7 9 7 2 358 355 350 345 344 343 339 336 335 337 347 32 40 13 353 348 340 339 268 276 167 97 86 91 123 224 217 203 261 241 256 171 148 136 118 154 165 160 168
9 4 2 3 2 358 354 351 348 343 343 341 338 337 332 335 20 31 5 348 344 340 338 345 333 27 98 84 128 148 195 212 245 253 248 192 220 208 151 194 188 189 159 160 166
4 3 2 0 359 355 350 346 343 342 341 340 339 339 335 350 36 346 333 330 335 343 336 344 27 121 81 118 186 223 245 238 279 289 171 176 151 227 224 213 181 177 162 163 168
2 1 359 357 355 351 348 346 341 339 341 343 341 343 344 357 14 337 333 324 322 332 346 331 188 158 140 207 185 196 267 254 267 269 233 171 232 242 249 241 175 161 165 167 169
358 357 355 354 351 350 346 344 339 337 337 341 341 335 340 142 332 351 347 341 338 343 32 349 170 182 136 137 169 273 274 276 256 228 250 180 262 312 248 200 159 166 171 172 181
354 354 353 352 351 350 348 345 337 335 336 338 335 336 343 130 357 9 7 13 358 4 46 68 134 224 153 118 105 324 324 317 224 205 273 205 274 231 194 170 161 166 179 181 180
352 352 352 350 352 353 353 349 340 334 330 337 336 341 345 336 321 340 352 9 2 29 47 75 87 112 22 117 31 41 51 351 315 154 194 133 266 9 186 178 174 175 185 183 175
353 350 350 348 349 352 353 351 347 330 332 331 329 334 327 328 321 320 322 345 30 26 65 88 98 82 77 80 13 9 241 231 319 193 90 143 262 331 187 200 191 185 194 184 177
351 349 349 349 350 349 352 355 351 340 351 331 355 333 30 325 336 358 341 339 83 100 105 102 78 73 35 81 222 205 226 252 264 301 333 254 263 273 247 202 209 198 197 186 184
339 343 346 346 347 346 350 2 5 353 332 284 303 280 309 336 17 359 354 16 63 91 74 31 76 193 225 209 149 132 160 247 253 17 213 249 265 263 234 213 201 200 197 190 189
326 332 337 341 342 346 350 20 21 322 311 305 257 280 312 341 346 8 10 77 69 99 85 26 206 183 237 159 195 215 227 262 286 136 177 337 285 257 205 218 213 203 199 196 186
316 320 328 336 337 344 353 3 351 344 294 317 273 279 317 335 353 357 16 51 76 98 44 171 158 321 206 155 159 214 192 214 230 29 48 318 285 239 225 215 229 225 216 201 194
306 310 317 328 334 337 346 346 341 338 47 284 135 326 310 330 318 354 22 38 27 170 174 214 275 195 211 225 136 252 185 249 210 94 227 348 272 286 234 246 223 232 223 209 195
296 301 308 316 318 326 329 336 340 347 339 256 196 197 275 287 309 266 16 61 156 169 111 240 150 117 175 191 185 232 51 79 40 87 46 291 42 268 341 260 239 228 230 219 202
287 290 294 300 308 313 323 337 341 33 257 340 277 352 12 198 257 305 305 67 99 70 341 279 312 202 204 115 142 151 89 60 59 60 334 236 193 256 198 224 307 262 216 206 197
280 280 282 283 284 291 328 18 28 189 51 253 252 187 165 241 231 184 225 296 169 69 281 306 246 300 237 124 95 104 83 1 357 2 234 340 308 260 258 262 259 250 193 181 177
274 268 270 265 260 240 136 64 164 245 242 61 162 168 220 171 245 176 214 260 214 112 124 156 316 178 202 255 176 171 153 153 204 202 276 2 238 260 237 304 287 229 167 164 165
265 262 258 257 250 214 139 159 209 210 207 175 117 210 250 244 194 185 216 221 199 176 172 156 270 11 235 234 170 184 177 153 113 109 37 253 293 299 306 350 113 154 160 161 161
268 256 257 258 225 164 116 227 238 226 163 148 196 181 212 216 181 192 204 206 214 191 155 187 270 192 256 159 19 187 168 92 43 164 239 278 276 247 334 340 138 160 164 163 160
246 236 243 214 173 161 196 218 244 248 192 182 224 256 221 199 199 199 222 261 199 150 159 137 130 285 49 214 183 143 221 57 101 145 169 282 259 212 270 302 220 188 175 169 168
221 185 177 178 148 195 196 194 225 285 221 275 294 229 211 202 208 228 222 229 189 157 166 184 149 206 219 237 178 165 200 162 136 215 179 141 266 344 276 269 203 186 178 174 172
191 155 174 178 195 205 213 250 246 236 231 167 240 247 7 238 263 219 232 352 200 170 165 183 178 80 333 8 47 221 209 161 109 104 192 157 254 83 23 353 189 179 179 171 172
168 145 176 207 223 183 181 218 207 226 196 175 237 94 99 198 207 292 271 310 5 143 133 155 165 185 189 172 140 187 209 199 164 173 184 235 283 308 336 337 240 201 183 179 176
202 193 181 185 218 195 180 184 182 208 206 182 208 208 178 213 197 209 230 257 22 336 65 157 214 192 242 228 225 230 226 201 205 210 218 205 219 240 257 280 236 206 191 182 183
205 165 177 184 161 190 185 197 207 187 178 201 216 179 192 212 194 199 172 197 212 237 153 334 234 174 244 239 213 235 249 237 240 241 253 259 265 253 271 272 209 206 196 190 186
210 180 166 174 165 166 198 187 194 164 208 208 207 163 204 221 182 160 132 105 160 182 171 188 179 155 241 6 287 265 229 225 237 163 255 245 278 332 295 255 246 223 204 194 176
Wind_Speed_850mb
31 32 35 38 39 40 43 45 46 44 42 43 42 38 34 29 22 13 11 15 17 14 12 9 2 1 1 2 3 5 6 2 6 9 6 2 2 6 9 14 9 8 13 21 36
28 32 34 36 41 45 47 47 49 49 45 42 40 37 32 24 14 10 11 14 16 16 12 6 4 3 1 3 4 7 5 10 6 7 4 2 3 10 8 9 4 9 13 34 34
33 37 40 43 44 46 48 47 47 49 48 44 39 32 29 21 5 7 10 15 19 17 13 9 5 1 3 1 1 5 7 5 4 6 7 4 3 3 9 5 14 18 32 43 33
29 30 33 37 41 46 49 51 51 48 49 43 37 31 23 11 2 8 16 15 14 14 11 8 2 3 4 1 3 0 7 7 3 3 2 4 6 3 10 4 10 21 37 39 32
26 30 36 40 44 48 50 48 49 51 46 36 31 26 16 7 4 14 16 16 12 9 7 4 2 5 6 2 3 4 2 4 3 3 3 4 3 5 12 12 14 36 35 31 26
30 32 34 37 42 46 48 47 46 50 40 33 29 27 12 2 6 14 17 14 10 7 2 1 2 5 6 4 4 4 5 6 4 3 2 3 3 1 5 14 34 36 30 27 20
29 31 34 39 45 48 48 45 49 45 35 26 34 23 5 4 2 13 17 11 12 8 4 3 1 3 4 5 1 1 7 8 6 4 1 2 7 10 8 25 38 34 27 24 21
32 33 35 38 42 45 47 48 48 36 33 25 26 17 4 2 5 14 15 11 13 7 5 6 5 2 2 6 8 5 7 6 3 6 1 3 11 2 17 34 33 29 25 25 29
31 34 37 41 45 48 47 51 38 38 20 35 16 14 5 8 13 25 17 10 6 7 5 6 6 5 3 7 8 11 4 4 11 6 2 3 8 5 14 34 35 33 25 29 33
32 36 39 42 47 52 50 48 44 21 19 22 5 8 2 12 17 12 12 9 2 5 6 4 6 6 6 6 7 5 4 6 8 1 0 4 14 9 9 29 40 33 27 34 36
33 36 40 44 47 52 53 47 43 9 50 15 23 11 11 16 5 16 14 4 3 5 5 6 8 6 8 9 5 5 4 5 5 1 2 9 12 16 9 19 27 32 29 37 36
35 37 39 44 48 44 48 31 22 16 24 21 11 11 10 13 5 19 12 3 5 4 1 9 4 3 4 5 5 5 3 8 7 1 4 7 19 15 14 17 41 43 38 42 41
38 40 40 41 46 40 46 36 31 28 9 8 4 6 4 9 4 13 13 5 7 4 2 7 3 6 4 3 5 5 7 5 10 2 6 8 13 8 7 17 26 40 45 46 50
40 41 41 38 27 44 31 34 33 30 8 10 0 2 4 6 3 8 8 4 4 4 5 6 4 2 3 3 9 5 2 3 3 4 6 4 8 9 6 11 11 37 46 54 56
43 43 43 39 33 28 27 26 26 17 13 5 3 3 2 2 7 2 5 3 5 4 5 7 4 1 6 5 5 7 5 6 4 5 5 5 3 11 3 10 16 26 39 53 60
48 46 44 40 33 24 19 16 19 8 13 5 1 1 4 2 3 5 2 3 6 3 4 7 5 4 5 5 5 13 8 11 7 5 4 9 8 7 9 10 9 3 22 39 56
52 51 49 40 22 16 7 6 7 7 4 5 4 2 2 6 5 5 2 2 6 4 3 5 4 7 4 4 5 5 9 4 7 5 9 7 3 13 10 7 7 12 21 37 55
59 58 55 44 33 13 11 8 8 7 12 3 3 3 9 11 8 5 2 5 6 7 4 5 10 9 3 5 8 6 8 9 11 5 6 2 11 9 5 15 18 11 31 44 52
60 59 54 50 36 17 17 4 12 12 5 9 1 6 7 6 7 6 11 9 13 17 13 8 8 1 2 1 2 7 6 9 12 4 3 6 12 15 7 7 5 24 45 49 45
60 55 53 45 29 28 7 13 11 12 8 4 13 15 13 8 9 9 10 7 6 13 4 8 2 1 2 3 4 4 8 6 2 6 7 7 9 9 10 10 4 13 38 43 40
57 11 15 24 31 21 7 14 13 29 19 13 12 10 13 12 13 10 8 4 7 9 9 8 6 4 2 10 13 4 3 6 6 7 8 3 8 8 8 11 11 18 40 40 35
47 5 33 51 9 9 7 11 8 9 14 4 3 14 14 13 12 9 14 9 13 19 14 10 8 7 15 2 3 5 11 9 7 8 3 5 11 1 12 13 16 30 38 30 28
19 13 50 59 8 8 5 4 7 3 4 7 7 7 3 5 6 8 6 3 5 10 13 11 5 1 10 5 4 5 6 6 7 5 11 8 8 2 11 4 19 37 31 30 27
22 7 13 27 12 6 8 9 8 8 9 9 5 5 4 4 2 7 5 2 2 2 7 11 6 9 11 6 6 6 8 10 9 5 5 18 11 18 21 9 7 22 32 30 26
23 10 18 11 14 18 15 8 10 11 14 17 7 15 13 11 8 10 6 3 3 4 3 6 8 7 7 8 3 6 10 13 13 10 12 6 12 11 12 12 21 28 31 29 23
25 15 18 10 15 31 22 16 21 9 13 10 9 13 11 9 12 8 10 8 7 2 5 2 5 8 6 10 13 12 21 19 26 21 18 23 28 16 40 31 20 36 39 35 27
38 25 18 16 11 13 10 12 20 19 18 8 14 10 14 15 8 6 4 5 8 8 7 5 5 5 5 0 5 11 30 32 22 8 7 14 7 12 10 15 30 43 49 44 32
Wind_Direction_850mb
16 11 9 8 9 7 1 357 353 349 347 346 344 339 338 339 342 347 11 10 0 348 336 344 297 224 181 140 133 124 66 225 246 170 277 213 208 144 132 132 146 160 161 167 169
13 6 7 9 7 2 358 355 350 345 344 343 339 336 335 337 347 32 40 13 353 348 340 339 268 276 167 97 86 91 123 224 217 203 261 241 256 171 148 136 118 154 165 160 168
9 4 2 3 2 358 354 351 348 343 343 341 338 337 332 335 20 31 5 348 344 340 338 345 333 27 98 84 128 148 195 212 245 253 248 192 220 208 151 194 188 189 159 160 166
4 3 2 0 359 355 350 346 343 342 341 340 339 339 335 350 36 346 333 330 335 343 336 344 27 121 81 118 186 223 245 238 279 289 171 176 151 227 224 213 181 177 162 163 168
2 1 359 357 355 351 348 346 341 339 341 343 341 343 344 357 14 337 333 324 322 332 346 331 188 158 140 207 185 196 267 254 267 269 233 171 232 242 249 241 175 161 165 167 169
358 357 355 354 351 350 346 344 339 337 337 341 341 335 340 142 332 351 347 341 338 343 32 349 170 182 136 137 169 273 274 276 256 228 250 180 262 312 248 200 159 166 171 172 181
354 354 353 352 351 350 348 345 337 335 336 338 335 336 343 130 357 9 7 13 358 4 46 68 134 224 153 118 105 324 324 317 224 205 273 205 274 231 194 170 161 166 179 181 180
352 352 352 350 352 353 353 349 340 334 330 337 336 341 345 336 321 340 352 9 2 29 47 75 87 112 22 117 31 41 51 351 315 154 194 133 266 9 186 178 174 175 185 183 175
353 350 350 348 349 352 353 351 347 330 332 331 329 334 327 328 321 320 322 345 30 26 65 88 98 82 77 80 13 9 241 231 319 193 90 143 262 331 187 200 191 185 194 184 177
351 349 349 349 350 349 352 355 351 340 351 331 355 333 30 325 336 358 341 339 83 100 105 102 78 73 35 81 222 205 226 252 264 301 333 254 263 273 247 202 209 198 197 186 184
339 343 346 346 347 346 350 2 5 353 332 284 303 280 309 336 17 359 354 16 63 91 74 31 76 193 225 209 149 132 160 247 253 17 213 249 265 263 234 213 201 200 197 190 189
326 332 337 341 342 346 350 20 21 322 311 305 257 280 312 341 346 8 10 77 69 99 85 26 206 183 237 159 195 215 227 262 286 136 177 337 285 257 205 218 213 203 199 196 186
316 320 328 336 337 344 353 3 351 344 294 317 273 279 317 335 353 357 16 51 76 98 44 171 158 321 206 155 159 214 192 214 230 29 48 318 285 239 225 215 229 225 216 201 194
306 310 317 328 334 337 346 346 341 338 47 284 135 326 310 330 318 354 22 38 27 170 174 214 275 195 211 225 136 252 185 249 210 94 227 348 272 286 234 246 223 232 223 209 195
296 301 308 316 318 326 329 336 340 347 339 256 196 197 275 287 309 266 16 61 156 169 111 240 150 117 175 191 185 232 51 79 40 87 46 291 42 268 341 260 239 228 230 219 202
287 290 294 300 308 313 323 337 341 33 257 340 277 352 12 198 257 305 305 67 99 70 341 279 312 202 204 115 142 151 89 60 59 60 334 236 193 256 198 224 307 262 216 206 197
280 280 282 283 284 291 328 18 28 189 51 253 252 187 165 241 231 184 225 296 169 69 281 306 246 300 237 124 95 104 83 1 357 2 234 340 308 260 258 262 259 250 193 181 177
274 268 270 265 260 240 136 64 164 245 242 61 162 168 220 171 245 176 214 260 214 112 124 156 316 178 202 255 176 171 153 153 204 202 276 2 238 260 237 304 287 229 167 164 165
265 262 258 257 250 214 139 159 209 210 207 175 117 210 250 244 194 185 216 221 199 176 172 156 270 11 235 234 170 184 177 153 113 109 37 253 293 299 306 350 113 154 160 161 161
268 256 257 258 225 164 116 227 238 226 163 148 196 181 212 216 181 192 204 206 214 191 155 187 270 192 256 159 19 187 168 92 43 164 239 278 276 247 334 340 138 160 164 163 160
246 236 243 214 173 161 196 218 244 248 192 182 224 256 221 199 199 199 222 261 199 150 159 137 130 285 49 214 183 143 221 57 101 145 169 282 259 212 270 302 220 188 175 169 168
221 185 177 178 148 195 196 194 225 285 221 275 294 229 211 202 208 228 222 229 189 157 166 184 149 206 219 237 178 165 200 162 136 215 179 141 266 344 276 269 203 186 178 174 172
191 155 174 178 195 205 213 250 246 236 231 167 240 247 7 238 263 219 232 352 200 170 165 183 178 80 333 8 47 221 209 161 109 104 192 157 254 83 23 353 189 179 179 171 172
168 145 176 207 223 183 181 218 207 226 196 175 237 94 99 198 207 292 271 310 5 143 133 155 165 185 189 172 140 187 209 199 164 173 184 235 283 308 336 337 240 201 183 179 176
202 193 181 185 218 195 180 184 182 208 206 182 208 208 178 213 197 209 230 257 22 336 65 157 214 192 242 228 225 230 226 201 205 210 218 205 219 240 257 280 236 206 191 182 183
205 165 177 184 161 190 185 197 207 187 178 201 216 179 192 212 194 199 172 197 212 237 153 334 234 174 244 239 213 235 249 237 240 241 253 259 265 253 271 272 209 206 196 190 186
210 180 166 174 165 166 198 187 194 164 208 208 207 163 204 221 182 160 132 105 160 182 171 188 179 155 241 6 287 265 229 225 237 163 255 245 278 332 295 255 246 223 204 194 176